Flag for Germany Weather past 2 weeks in Erfurt, Thuringia, Germany

Now
61 °F

Light rain. Partly sunny.


Feels Like: 61 °F
Forecast: 45 / 55 °F
Wind: 10 mph from West

Location: Erfurt-Bindersleben

Current Time: Sep 21, 2014 at 2:06:43 PM

Latest Report: Sep 21, 2014 at 1:20 PM


Visibility: 6 mi

Pressure: 29.92 "Hg

Humidity: 88%

Dew point: 57 °F

Location of ErfurtLocation

Historic Weather in Erfurt — Graph

°F

Erfurt temperature yesterday

Maximum temperature yesterday: 70 °F (at 11:50 AM)
Minimum temperature yesterday: 55 °F (at 10:20 PM)
Average temperature yesterday: 61 °F

Past Weeks' High & Low Weather Summary

 TemperatureHumidityPressure
High73 °F (Sep 6, 12:20 PM)100% (Sep 7, 1:50 AM)30.18 "Hg (Sep 7, 1:50 AM)
Low52 °F (Sep 10, 11:50 PM)50% (Sep 16, 4:20 PM)29.89 "Hg (Sep 6, 3:50 PM)
Average60 °F87%30.02 "Hg
* Reported Sep 6 12:20 PM — Sep 21 12:50 PM, Erfurt, Weather by CustomWeather, © 2014

Note: Actual official high and low records may vary slightly from our data, if they occured in-between our weather recording intervals... More about our weather records

Advertising

Erfurt weather history for previous 24 hours

 ConditionsComfort  
Time TempWeatherWind HumidityBarometerVisibility
12:50 PM
Sep 21
61 °FBroken clouds.10 mph88%29.95 "Hg6 mi
12:20 PM61 °FBroken clouds.9 mph88%29.95 "Hg4 mi
11:20 AM61 °FLight rain. Fog.8 mph94%29.95 "Hg3 mi
10:50 AM59 °FDrizzle. Fog.9 mph100%29.95 "Hg3 mi
10:20 AM59 °FDrizzle. Fog.9 mph94%29.95 "Hg2 mi
9:50 AM59 °FLight rain. Broken clouds.8 mph94%29.95 "Hg4 mi
9:20 AM59 °FLight rain. Broken clouds.9 mph94%29.92 "Hg4 mi
8:50 AM59 °FPartly sunny.9 mph94%29.92 "Hg5 mi
8:20 AM57 °FPartly sunny.10 mph100%29.92 "Hg6 mi
7:50 AM57 °FPassing clouds.9 mph94%29.92 "HgN/A
7:20 AM57 °FPassing clouds.7 mph94%29.95 "HgN/A
6:50 AM55 °FPassing clouds.9 mph100%29.92 "HgN/A
6:20 AM55 °FPassing clouds.9 mph100%29.92 "HgN/A
5:50 AM55 °FPartly cloudy.12 mph100%29.92 "HgN/A
5:20 AM55 °FClear.9 mph100%29.92 "Hg10 mi
4:50 AM55 °FClear.2 mph94%29.92 "Hg10 mi
4:20 AM55 °FClear.5 mph94%29.92 "Hg10 mi
3:50 AM55 °FPassing clouds.7 mph94%29.95 "HgN/A
3:20 AM57 °FPassing clouds.10 mph94%29.95 "HgN/A
2:50 AM57 °FPassing clouds.8 mph94%29.95 "HgN/A
2:20 AM57 °FPartly cloudy.7 mph94%29.95 "HgN/A
1:50 AM57 °FPartly cloudy.9 mph94%29.95 "HgN/A
1:20 AM57 °FPassing clouds.9 mph94%29.95 "HgN/A
12:20 AM57 °FPassing clouds.10 mph94%29.98 "HgN/A
11:50 PM
Sep 20
55 °FPartly cloudy.10 mph100%29.95 "HgN/A
11:20 PM55 °FPassing clouds.10 mph100%29.95 "HgN/A
10:20 PM55 °FClear.9 mph94%29.95 "Hg10 mi
9:50 PM57 °FClear.8 mph94%29.95 "Hg10 mi
9:20 PM57 °FClear.7 mph94%29.95 "Hg10 mi
8:50 PM57 °FClear.8 mph94%29.95 "Hg10 mi
8:20 PM59 °FClear.8 mph88%29.95 "Hg10 mi
7:50 PM59 °FSunny.8 mph88%29.95 "Hg10 mi
3:20 PM68 °FPartly sunny.12 mph78%29.95 "HgN/A
2:50 PM68 °FPartly sunny.12 mph83%29.95 "HgN/A
2:20 PM68 °FBroken clouds.9 mph83%29.95 "HgN/A
Weather by CustomWeather, © 2014

See weather overviewHow to use our weather pages